Airfield :
LOGIN :

Register | Disclaimer

   EN    FR    IT 

 










Legend :    VFR   Marginal VFR   IFR   Intensive IFR   Very Intensive IFR
Visi :
Ceiling :
>= 8 km
>= 3000ft
5 to 8 km
1000 to 3000 ft
1500m to 5 km
500 to 1000 ft
800 to 1500m
200 to 500 ft
< 800m
< 200 ft
Symbols :   Thunderstorms  Fog  Heavy snow  Heavy precipitations  Wind > 20 kt
SIGMETs :     Misc.  Thunderstorms  Icing  Turbulence  Mountain Waves  Volcanic Ashes







- Airport Elevation : 1649 ft
- IATA code : HHN


EDFH - Frankfurt-Hahn Rhineland-Palatinate

CURRENT METAR :
  • 281620Z 25010KT 200V300 9999 FEW040 19/10 Q1015

EXPIRED METARs :
  • 281550Z 26013KT 220V280 9999 FEW040 19/11 Q1015
  • 281520Z 26013KT 9999 SCT040 19/11 Q1016
  • 281450Z 25012KT CAVOK 19/11 Q1016
  • 281420Z 24014KT 9999 SCT038 18/10 Q1015
  • 281350Z 25012KT 220V300 9999 SCT038 19/10 Q1015

TAF TAF EDFH
Valid from the 28 at 06:00 until the 29 at 06:00 UTC


280500Z 2806/2906 25005KT 9999 SCT040
BECMG 2808/2810 26010KT
PROB30
TEMPO 2810/2816 25015G25KT
No reported NOTAMs for that airfield.



MET'MAP, your aeronautical weather chart ! - Copyright ORBIFLY December 2007 - Disclaimer

ORBIFLY MET'MAP TEAM :

Programming & Development : Alexandra Zaïnal
Concept & Development : Baudouin d'Aumeries
Co-Development & Prog : Marc-Olivier Méhu
Technical & hardware support : Manuel Goepfert

Contact : metmap@orbifly.com




SOURCES & CREDITS :

   NOAA